ECMWFNIL_850_temp_105.txt.gz
Temp
12 11 11 11 11 11 10 10 10 10 11 11 11 11 12 12 12 13 13 13 13 12 12 12 12 12 12 12 12 12 12 12 11 11 11 11 11 11 10 10 10 10
11 11 11 11 11 10 10 10 10 11 11 11 12 12 13 13 13 13 13 12 12 12 12 12 12 12 12 12 12 11 11 11 11 11 11 11 10 10 10 10 10 9
11 11 11 10 10 10 10 11 11 12 12 12 12 12 13 13 13 12 12 12 12 12 12 12 12 12 12 11 11 11 11 11 11 10 10 10 10 10 10 9 9 9
11 11 10 10 10 11 11 12 12 12 12 12 12 12 12 12 12 12 12 12 12 12 12 12 11 11 11 11 11 11 11 10 10 10 10 10 9 9 9 9 9 8
11 11 10 11 11 11 12 12 12 12 12 12 12 12 12 12 12 12 12 12 12 11 11 11 11 11 11 11 11 10 10 10 10 10 9 9 9 9 9 8 8 8
11 11 11 11 12 12 12 12 12 12 12 12 12 12 12 12 12 12 12 11 11 11 11 11 11 11 11 10 10 10 10 10 9 9 9 9 9 8 8 8 8 8
12 12 12 12 12 12 12 12 12 12 12 12 12 12 12 12 12 11 11 11 11 11 11 11 11 10 10 10 10 10 10 9 9 9 8 8 8 8 8 8 8 8
12 12 12 13 13 12 12 12 12 12 12 12 12 12 12 11 11 11 11 11 11 11 10 10 10 10 10 10 10 9 9 9 9 8 8 8 8 8 8 8 8 7
12 13 13 13 13 12 12 12 12 12 12 12 11 11 11 11 11 11 11 10 10 10 10 10 10 10 10 10 9 9 9 9 9 8 8 8 8 7 7 7 7 7
13 13 13 13 12 12 12 12 12 12 12 11 11 11 11 11 11 10 10 10 10 10 10 10 10 10 9 9 9 9 9 8 8 8 8 7 7 7 7 7 7 7
13 13 13 12 12 12 12 12 12 12 11 11 11 11 11 10 10 10 10 10 10 10 10 10 10 9 9 9 9 9 8 8 8 7 7 7 7 7 6 6 6 6
13 12 12 12 12 12 12 12 11 11 11 11 10 10 10 10 10 10 10 10 10 10 10 9 9 9 9 9 8 8 8 7 7 7 7 6 6 6 6 6 6 6
13 12 12 12 12 12 12 11 11 11 10 10 10 10 10 10 10 10 9 9 9 9 9 9 9 9 9 8 8 8 7 7 7 7 6 6 6 6 6 6 6 6
12 12 12 12 12 11 11 11 10 10 10 10 10 10 9 9 9 9 9 9 9 9 9 9 9 8 8 8 7 7 7 7 7 6 6 6 6 6 6 6 6 6
12 12 12 12 11 11 10 10 10 10 10 10 9 9 9 9 9 9 9 9 9 9 9 8 8 8 8 7 7 7 7 6 6 6 6 6 6 6 6 6 6 6
12 12 11 11 10 10 10 10 10 9 9 9 9 9 9 9 9 9 9 9 9 9 8 8 8 7 7 7 7 7 6 6 6 6 5 5 5 6 6 6 6 5
11 11 11 10 10 10 9 9 9 9 9 9 9 9 9 9 8 8 8 8 8 8 8 7 7 7 7 7 6 6 6 6 5 5 5 5 5 5 5 5 5 5
11 11 10 10 9 9 9 9 9 9 9 9 8 8 8 8 8 8 8 8 8 7 7 7 7 7 6 6 6 6 6 5 5 5 5 5 5 5 5 5 5 5
10 10 10 9 9 9 9 9 9 9 8 8 8 8 8 8 8 8 8 7 7 7 7 7 6 6 6 6 6 5 5 5 5 5 5 5 5 5 5 4 4 4
10 9 9 9 9 9 9 9 8 8 8 8 8 8 8 7 7 7 7 7 7 7 6 6 6 6 5 5 5 5 5 5 5 5 5 5 5 4 4 4 4 4
9 9 9 9 9 8 8 8 8 8 8 8 8 7 7 7 7 7 7 7 7 6 6 6 6 5 5 5 5 5 5 5 5 5 5 4 4 4 4 4 4 3
9 9 9 8 8 8 8 8 8 8 8 7 7 7 7 7 6 6 6 6 6 6 6 5 5 5 5 5 5 5 5 5 5 4 4 4 4 4 4 4 3 3
9 8 8 8 8 8 8 8 7 7 7 7 7 7 7 6 6 6 6 6 6 5 5 5 5 5 5 5 5 5 5 4 4 4 4 4 4 4 4 3 3 2
8 8 8 8 8 8 8 7 7 7 7 7 7 6 6 6 6 6 6 5 5 5 5 5 5 5 5 5 4 4 4 4 4 4 4 4 4 4 4 3 2 2
8 8 8 8 8 7 7 7 7 7 6 6 6 6 6 6 5 5 5 5 5 5 5 5 5 4 4 4 4 4 4 4 4 4 4 4 4 4 3 3 2 1
7 7 7 7 7 7 7 6 6 6 6 6 6 5 5 5 5 5 5 5 5 5 5 4 4 4 4 4 4 4 3 3 3 3 3 3 3 3 3 2 1 0

ECMWFNIL_850_temp_111.txt.gz
Temp
15 15 14 14 13 13 12 12 11 11 11 11 12 12 11 11 10 10 10 10 11 11 11 11 12 12 12 12 11 11 11 11 11 11 11 11 11 11 10 10 10 10
15 15 14 13 13 13 12 12 11 11 11 11 12 12 11 10 9 9 10 10 11 11 12 12 12 12 12 11 11 11 11 11 11 11 11 11 11 10 10 10 10 9
15 14 14 13 13 13 12 11 11 11 11 11 11 11 11 10 9 9 9 10 11 11 12 12 12 11 11 11 11 11 11 11 11 11 11 11 10 10 10 10 9 9
15 14 14 13 13 12 11 11 11 11 11 11 11 11 10 9 9 9 9 10 11 11 12 11 11 11 11 11 11 11 11 11 11 11 10 10 10 10 9 9 9 9
15 14 13 13 12 12 11 11 11 11 12 11 11 10 9 9 9 9 10 11 11 11 11 11 10 10 11 11 11 11 11 11 11 10 10 10 10 9 9 9 9 8
14 14 13 12 12 11 11 11 11 11 11 11 10 10 9 9 9 10 11 11 11 11 11 10 10 10 11 11 11 11 11 10 10 10 10 10 9 9 9 9 8 8
14 13 13 12 11 11 11 11 11 11 11 10 9 9 9 9 9 10 11 11 11 11 10 10 10 11 11 11 11 10 10 10 10 10 10 9 9 9 9 8 8 8
13 13 13 12 11 11 11 10 11 11 10 9 9 9 9 9 10 10 11 11 10 10 10 10 10 11 11 11 10 10 10 10 10 9 9 9 9 8 8 8 8 8
13 13 13 12 11 11 11 10 10 10 10 9 9 9 9 9 10 10 10 10 10 10 10 10 10 10 10 10 10 10 10 10 9 9 9 8 8 8 8 8 8 7
13 13 12 11 10 10 10 10 10 9 9 9 9 9 9 9 10 10 10 10 10 10 10 10 10 10 10 10 10 10 9 9 9 9 8 8 8 8 8 8 7 7
12 12 12 11 10 10 9 10 10 9 8 8 9 9 9 9 10 10 10 10 10 10 10 10 10 10 10 10 9 9 9 9 8 8 8 8 8 8 7 7 7 7
12 11 10 9 9 9 9 10 10 9 8 8 8 9 9 10 10 10 10 10 10 10 10 10 10 10 9 9 9 9 9 8 8 8 8 8 8 7 7 7 7 6
10 9 8 8 8 8 9 9 9 8 8 8 8 9 10 10 10 10 10 10 10 10 10 10 10 9 9 9 9 9 8 8 8 8 8 7 7 7 7 6 6 6
8 8 8 8 8 8 8 8 8 8 8 8 9 9 10 10 10 10 10 10 10 10 9 9 9 9 9 9 9 8 8 8 8 7 7 7 7 6 6 6 6 6
7 7 8 8 8 8 8 8 8 8 8 9 9 10 10 10 10 10 10 10 9 9 9 9 9 9 9 8 8 8 8 7 7 7 7 6 6 6 6 6 6 5
7 8 8 8 8 9 9 8 8 8 9 9 9 9 9 9 9 9 10 10 9 9 9 9 9 8 8 8 7 7 7 7 7 6 6 6 6 6 6 6 5 5
7 7 8 8 8 8 8 8 9 9 9 9 9 9 9 9 9 9 9 9 9 9 9 9 8 8 8 7 7 7 7 6 6 6 6 6 6 6 5 5 5 5
7 7 8 8 8 8 8 8 9 9 9 9 9 9 9 9 9 9 9 9 8 8 8 8 8 7 7 7 7 6 6 6 6 6 6 6 5 5 5 5 5 5
8 8 8 8 8 8 9 9 9 9 9 9 9 9 9 9 9 9 8 8 8 8 8 8 7 7 7 7 6 6 6 6 6 5 5 5 5 5 5 5 5 4
9 9 9 9 9 9 9 9 9 9 9 9 9 9 9 9 9 8 8 8 8 8 8 7 7 7 6 6 6 6 5 5 5 5 5 5 5 5 5 5 4 4
10 10 10 10 10 10 10 10 9 9 9 9 9 9 9 9 8 8 8 8 8 8 7 7 7 6 6 6 6 5 5 5 5 5 5 5 5 5 5 5 4 4
11 11 11 11 10 10 10 10 9 9 9 9 8 8 8 8 8 8 8 8 8 7 7 7 6 6 6 5 5 5 5 5 5 5 5 5 5 4 4 4 4 4
12 12 12 11 11 11 10 10 10 9 9 8 8 8 8 8 7 7 7 7 7 7 6 6 6 6 5 5 5 5 5 5 4 4 4 4 4 4 4 4 4 3
12 12 12 11 11 11 10 10 10 9 8 8 8 8 8 8 7 7 7 7 6 6 6 6 6 5 5 5 5 5 5 4 4 4 4 4 4 4 4 3 3 3
12 12 11 11 11 11 10 10 9 9 8 8 8 8 7 7 7 7 6 6 6 6 5 5 5 5 5 5 5 4 4 4 4 4 4 4 3 3 3 3 3 2
11 11 11 11 10 10 10 9 9 8 8 8 7 7 7 7 6 6 6 6 6 5 5 5 5 5 5 4 4 4 4 4 4 3 3 3 3 3 3 2 2 2

ECMWFNIL_850_temp_117.txt.gz
Temp
19 19 18 18 18 17 17 17 17 16 16 16 16 15 15 13 12 12 12 12 11 10 10 11 11 11 11 10 9 9 9 9 10 10 10 10 11 12 11 11 11 11
19 19 18 18 17 17 16 16 16 17 17 17 16 16 15 13 12 11 12 11 10 10 10 10 10 10 10 10 9 9 9 10 11 11 10 11 11 11 11 11 11 11
19 19 18 18 17 17 17 16 16 16 17 16 16 16 15 13 12 11 11 11 10 10 10 10 10 10 9 10 10 10 10 10 11 11 11 11 11 11 11 11 11 10
19 19 18 17 17 16 16 16 15 16 16 16 16 16 15 13 12 11 11 11 11 10 10 10 9 9 9 10 10 10 11 11 11 11 11 11 11 11 11 11 10 10
19 18 17 17 16 15 15 15 15 16 16 15 16 16 15 13 12 11 11 11 11 10 10 10 9 9 9 10 10 10 11 11 11 11 11 11 11 11 11 10 10 10
19 17 17 16 15 14 14 15 15 15 15 14 15 15 14 13 12 11 11 11 11 10 10 9 9 9 9 10 10 10 11 11 11 11 11 11 11 11 10 10 10 10
18 17 16 16 14 13 14 15 15 14 14 14 15 15 14 12 12 11 11 10 10 10 10 10 9 8 9 10 10 11 11 11 11 11 11 11 10 10 10 10 10 10
17 16 16 15 14 14 14 14 14 14 14 14 14 14 13 12 11 11 10 10 10 10 10 10 9 8 9 10 10 11 11 11 11 11 11 11 10 10 10 10 10 9
16 16 15 15 15 14 14 14 14 14 14 14 13 13 12 12 11 10 10 10 11 11 10 10 9 8 9 9 10 10 11 11 11 11 11 10 10 10 10 9 9 9
15 15 15 15 15 15 15 14 14 14 13 13 13 12 12 11 10 10 10 11 11 10 10 10 9 9 9 9 10 10 10 10 11 10 10 10 10 10 9 9 9 9
14 14 15 15 15 15 14 13 13 13 13 13 12 12 11 11 10 10 10 11 11 10 10 9 9 8 8 8 9 10 10 10 10 10 10 10 9 9 9 9 8 8
14 14 14 15 15 14 13 13 13 13 12 12 12 11 11 11 10 10 10 11 10 10 9 9 9 8 8 8 9 10 9 10 10 10 10 9 9 9 9 8 8 8
15 14 14 14 14 13 13 12 12 12 12 12 11 11 11 10 10 11 11 10 10 9 9 9 8 8 8 9 9 9 9 10 10 9 9 9 9 9 8 8 8 7
15 14 14 14 13 12 12 11 11 11 11 11 11 11 11 10 10 10 11 10 10 9 9 8 8 8 8 9 9 9 9 9 9 9 9 9 8 8 8 7 7 7
14 14 14 13 13 12 11 10 10 10 10 11 11 11 11 11 10 10 11 10 9 9 9 8 8 9 9 9 9 9 9 9 9 9 8 8 8 8 7 7 7 7
14 14 13 13 12 11 10 9 10 10 10 10 11 11 10 10 11 11 10 10 9 9 9 8 8 9 9 9 9 9 9 9 9 8 8 8 8 7 7 7 7 7
14 13 13 12 11 11 10 9 9 9 10 10 10 11 10 10 10 10 10 9 9 9 9 8 8 9 9 9 8 8 9 9 9 8 8 7 7 7 7 6 6 6
14 13 12 11 11 11 10 10 9 9 9 9 10 10 10 10 10 9 9 9 9 9 8 8 8 9 9 8 8 8 8 8 8 8 8 7 7 6 6 6 6 6
13 12 11 10 10 9 9 9 9 9 9 9 9 10 10 9 9 9 9 8 9 9 8 8 8 9 9 8 8 8 8 7 7 7 7 6 6 6 6 6 6 6
13 12 10 9 8 8 8 8 8 9 9 9 9 9 9 9 9 9 9 8 8 8 8 8 8 8 8 8 7 7 7 7 7 6 6 6 6 6 5 5 5 5
13 12 10 8 7 7 7 7 8 8 8 8 8 9 9 9 9 9 8 8 8 8 8 8 8 8 8 7 7 7 7 7 6 6 5 5 5 5 5 5 5 5
13 12 10 8 7 7 7 7 8 8 8 8 8 8 8 8 8 8 8 8 8 8 8 8 8 8 7 7 7 7 7 6 6 6 5 5 5 5 5 5 5 4
13 12 10 8 7 7 7 7 8 8 8 8 8 8 8 8 8 8 8 8 8 8 8 8 7 7 7 7 7 7 6 6 6 5 5 5 5 5 5 5 4 4
12 12 11 9 8 7 7 7 7 7 8 8 8 8 8 8 8 7 7 7 7 8 8 7 7 7 7 7 7 7 6 6 6 5 5 5 5 5 4 4 4 4
12 11 11 9 8 7 7 7 7 7 7 8 8 8 7 7 7 7 7 7 7 7 7 7 7 7 7 7 7 6 6 6 5 5 5 5 5 4 4 4 4 3
11 11 10 9 8 7 7 7 7 7 7 7 7 7 7 7 7 6 6 7 7 7 6 6 6 7 7 7 6 6 6 5 5 5 5 4 4 4 4 4 3 3

ECMWFNIL_850_temp_123.txt.gz
Temp
18 17 17 17 17 17 17 16 16 16 16 16 16 16 16 16 15 15 15 14 14 13 13 13 12 12 12 12 11 11 11 10 10 10 10 10 9 10 9 9 9 8
18 18 17 17 17 17 17 16 16 16 16 16 16 16 16 15 15 15 14 14 14 13 13 12 12 12 11 11 11 11 10 10 10 10 10 10 9 9 9 9 8 8
18 18 18 17 17 17 17 17 16 16 16 16 16 15 15 15 15 14 14 14 14 13 13 12 12 12 11 11 11 10 10 10 10 10 10 9 9 9 9 9 8 8
18 18 18 18 18 17 17 16 16 16 16 15 16 15 15 15 15 14 14 13 13 13 13 12 12 12 11 11 11 10 10 10 10 9 9 9 9 8 8 8 8 8
18 18 18 18 18 17 16 15 16 16 15 15 15 15 14 14 14 14 14 13 13 13 13 12 12 11 11 11 11 11 10 10 10 9 9 9 9 9 8 8 8 8
18 18 17 17 17 16 15 16 16 16 15 15 15 14 14 14 13 13 13 13 13 13 12 12 11 10 10 10 10 10 10 10 9 9 9 9 9 9 8 8 8 8
18 18 17 16 15 15 15 15 15 15 15 15 14 14 13 13 13 13 12 12 12 12 12 12 11 10 10 10 10 10 10 9 10 9 9 8 8 8 8 8 8 8
18 17 16 15 14 14 14 14 14 14 13 13 13 13 12 12 12 12 11 11 12 12 12 11 11 10 10 10 10 10 10 10 10 9 9 8 8 8 8 8 8 8
15 14 14 13 13 13 13 13 13 12 12 12 12 12 12 12 11 11 11 11 11 11 11 11 11 10 9 9 10 10 10 10 10 9 9 9 9 8 8 9 8 8
15 14 13 13 13 13 13 13 12 12 12 12 12 11 11 11 11 11 11 10 11 11 11 11 10 9 9 9 10 11 11 10 10 9 9 9 9 9 8 8 8 8
16 16 15 15 14 14 14 13 13 12 12 11 11 11 11 10 10 10 10 10 10 10 10 10 10 9 9 10 10 11 11 10 10 10 9 9 9 9 8 8 8 8
17 16 16 16 15 15 14 13 12 12 11 11 11 10 10 10 10 10 10 10 10 10 10 10 9 9 9 10 10 11 11 10 10 10 10 9 9 9 8 8 8 8
16 16 16 15 15 14 14 13 12 11 11 10 10 10 10 10 10 10 10 10 10 10 10 9 9 9 9 10 10 11 11 10 10 10 10 9 9 9 8 8 8 8
16 16 16 15 15 15 14 13 12 11 10 9 9 9 9 9 9 9 9 10 10 10 9 9 9 9 9 10 10 10 10 10 10 10 10 9 9 8 8 8 8 8
16 16 16 16 15 15 14 14 13 12 11 10 9 9 9 9 9 10 10 10 9 9 9 9 9 9 10 10 10 10 10 10 10 10 9 9 9 9 9 8 8 8
16 16 16 15 15 15 14 14 14 13 12 10 9 9 8 8 9 9 10 9 9 9 9 9 10 10 10 10 10 10 10 10 10 9 9 9 8 8 8 8 8 8
16 16 16 16 15 15 15 14 14 13 12 10 8 8 8 8 8 9 9 9 9 9 9 9 10 10 10 10 10 10 10 10 10 9 9 9 8 8 8 8 8 8
16 16 16 16 15 15 15 15 14 13 12 10 8 7 7 8 8 8 9 9 9 9 9 10 10 10 10 10 9 9 10 10 9 9 9 9 8 8 7 7 8 8
16 16 15 15 15 15 15 15 14 13 12 11 9 7 7 7 8 8 8 9 9 9 9 9 10 10 10 9 9 10 10 9 9 9 9 9 8 7 7 7 7 8
16 16 16 15 15 15 15 15 14 13 12 11 9 7 7 7 8 8 8 9 9 9 9 9 9 9 9 9 9 9 9 8 8 8 8 8 8 8 7 7 7 8
16 16 16 15 15 15 15 15 14 14 13 12 10 8 7 7 7 8 8 8 9 9 9 9 9 9 9 9 9 9 8 8 8 8 8 8 8 8 7 7 7 8
16 16 16 16 15 15 15 15 14 14 13 12 10 9 7 7 7 7 8 8 9 9 9 9 9 9 8 9 9 8 8 8 8 8 8 8 8 8 7 7 7 7
16 16 16 16 15 15 15 15 15 14 13 11 10 8 7 6 6 7 7 8 8 8 8 8 8 8 8 8 8 8 8 8 8 8 8 8 8 8 7 7 7 7
16 16 15 15 15 15 14 14 14 13 12 9 8 7 6 6 6 6 7 7 7 7 8 8 8 8 8 8 8 8 8 8 8 7 7 7 7 7 7 7 7 6
16 15 15 14 14 14 13 13 13 11 10 8 6 5 6 6 6 6 7 7 7 7 7 8 8 8 8 8 7 7 7 7 7 7 7 7 7 7 6 6 6 6
15 15 14 14 13 13 12 12 11 9 8 7 6 5 6 6 7 7 7 7 7 7 8 8 8 8 8 8 7 7 7 7 7 7 7 7 7 6 6 6 6 6